Fortuna, CA

3:10 AM PDT on September 18, 2019 (GMT -0700)
Rohnerville

Weather History for KFOT - July, 2019

Change the Weather History Date:

Friday, July 12, 2019

  Actual Average (KEKA) Record (KEKA)
Temperature  
Mean Temperature 62 °F -  
Max Temperature 68 °F 62 °F 74 °F (2003)
Min Temperature 55 °F 53 °F 45 °F (1887)
Degree Days  
Heating Degree Days 4    
Growing Degree Days 12 (Base 50)    
Moisture  
Dew Point 56 °F    
Average Humidity 89    
Maximum Humidity 100    
Minimum Humidity 68    
Precipitation  
Precipitation 0.00 in - - ()
Sea Level Pressure  
Sea Level Pressure 30.05 in    
Wind  
Wind Speed 7 mph (WNW)    
Max Wind Speed 16 mph    
Max Gust Speed 24 mph    
Visibility 7 miles    
Events      
Averages and records for this station are not official NWS values.
T = Trace of Precipitation, MM = Missing Value Source: NWS Daily Summary

Daily Weather History Graph

Daily Weather History Graph

Search for Another Location

Airport or City:

Astronomy

Jul. 12, 2019 Rise Set
Actual Time 5:56 AM PDT 8:47 PM PDT
Civil Twilight 5:23 AM PDT 9:20 PM PDT
Nautical Twilight 4:42 AM PDT 10:00 PM PDT
Astronomical Twilight 3:55 AM PDT 10:47 PM PDT
Moon 5:12 PM PDT (7/12) 2:43 AM PDT (7/12)
Length of Visible Light 15h 56m
Length of Day
14h 51m
Waxing Gibbous, 83% of the Moon is Illuminated
Jul 12
Waxing Gibbous
Jul 16
Full
Jul 24
Last Quarter
Jul 31
New
Aug 7
First Quarter

Hourly Weather History & Observations

Time (PDT) Temp. Dew Point Humidity Pressure Visibility Wind Dir Wind Speed Gust Speed Precip Events Conditions
12:10 AM 57.2 °F 57.2 °F 100% 30.09 in 0.5 mi WNW 6.9 mph - N/A   Overcast
12:30 AM 55.4 °F 55.4 °F 100% 30.09 in 0.5 mi WNW 4.6 mph - N/A   Overcast
12:50 AM 55.4 °F 55.4 °F 100% 30.08 in 1.2 mi WNW 5.8 mph - N/A   Overcast
1:10 AM 55.4 °F 55.4 °F 100% 30.08 in 0.2 mi WNW 4.6 mph - N/A   Overcast
1:30 AM 55.4 °F 55.4 °F 100% 30.08 in 0.2 mi West 5.8 mph - N/A   Overcast
1:50 AM 55.4 °F 55.4 °F 100% 30.08 in 2.5 mi WNW 5.8 mph - N/A   Overcast
2:10 AM 55.4 °F 55.4 °F 100% 30.07 in 0.2 mi NW 4.6 mph - N/A   Overcast
2:30 AM 55.4 °F 55.4 °F 100% 30.07 in 0.5 mi WNW 3.5 mph - N/A   Overcast
2:50 AM 55.4 °F 55.4 °F 100% 30.06 in 0.2 mi WNW 4.6 mph - N/A   Overcast
3:10 AM 55.4 °F 55.4 °F 100% 30.06 in 1.8 mi WNW 3.5 mph - N/A   Overcast
3:30 AM 55.4 °F 55.4 °F 100% 30.06 in 10.0 mi Calm Calm - N/A   Overcast
3:50 AM 55.4 °F 55.4 °F 100% 30.05 in 10.0 mi WNW 3.5 mph - N/A   Overcast
4:10 AM 55.4 °F 55.4 °F 100% 30.05 in 5.0 mi Calm Calm - N/A   Overcast
4:30 AM 55.4 °F 55.4 °F 100% 30.05 in 1.0 mi West 3.5 mph - N/A   Overcast
4:50 AM 55.4 °F 55.4 °F 100% 30.06 in 1.8 mi WNW 3.5 mph - N/A   Overcast
5:10 AM 55.4 °F 55.4 °F 100% 30.06 in 0.2 mi WNW 6.9 mph - N/A   Overcast
5:30 AM 55.4 °F 55.4 °F 100% 30.06 in 0.5 mi WNW 5.8 mph - N/A   Overcast
5:50 AM 55.4 °F 55.4 °F 100% 30.06 in 0.2 mi West 3.5 mph - N/A   Overcast
6:10 AM 55.4 °F 55.4 °F 100% 30.06 in 0.2 mi West 3.5 mph - N/A   Overcast
6:30 AM 55.4 °F 55.4 °F 100% 30.06 in 1.0 mi West 3.5 mph - N/A   Overcast
6:50 AM 55.4 °F 55.4 °F 100% 30.06 in 0.2 mi WSW 3.5 mph - N/A   Overcast
7:10 AM 55.4 °F 55.4 °F 100% 30.06 in 10.0 mi Calm Calm - N/A   Overcast
7:30 AM 55.4 °F 55.4 °F 100% 30.06 in 3.0 mi WSW 3.5 mph - N/A   Overcast
7:50 AM 55.4 °F 55.4 °F 100% 30.07 in 3.0 mi West 4.6 mph - N/A   Overcast
8:10 AM 57.2 °F 57.2 °F 100% 30.07 in 1.2 mi WNW 5.8 mph - N/A   Overcast
8:30 AM 57.2 °F 57.2 °F 100% 30.07 in 8.0 mi WNW 6.9 mph - N/A   Overcast
8:50 AM 57.2 °F 57.2 °F 100% 30.07 in 7.0 mi WNW 5.8 mph - N/A   Overcast
9:10 AM 57.2 °F 57.2 °F 100% 30.07 in 9.0 mi WNW 6.9 mph - N/A   Overcast
9:30 AM 57.2 °F 57.2 °F 100% 30.07 in 10.0 mi WNW 8.1 mph - N/A   Overcast
9:50 AM 59.0 °F 57.2 °F 94% 30.07 in 10.0 mi West 6.9 mph - N/A   Overcast
10:10 AM 59.0 °F 57.2 °F 94% 30.07 in 10.0 mi WNW 8.1 mph - N/A   Mostly Cloudy
10:30 AM 59.0 °F 57.2 °F 94% 30.07 in 10.0 mi WNW 6.9 mph - N/A   Mostly Cloudy
10:50 AM 62.6 °F 57.2 °F 82% 30.07 in 10.0 mi NW 9.2 mph - N/A   Mostly Cloudy
11:10 AM 62.6 °F 57.2 °F 82% 30.07 in 10.0 mi NNW 9.2 mph - N/A   Unknown
11:30 AM 64.4 °F 57.2 °F 77% 30.07 in 10.0 mi NNW 12.7 mph - N/A   Mostly Cloudy
11:50 AM 66.2 °F 57.2 °F 73% 30.06 in 10.0 mi NW 10.4 mph - N/A   Mostly Cloudy
12:10 PM 66.2 °F 57.2 °F 73% 30.06 in 10.0 mi WNW 11.5 mph - N/A   Mostly Cloudy
12:30 PM 66.2 °F 57.2 °F 73% 30.06 in 10.0 mi WNW 11.5 mph - N/A   Mostly Cloudy
12:50 PM 66.2 °F 57.2 °F 73% 30.06 in 10.0 mi WNW 13.8 mph 17.3 mph N/A   Overcast
1:10 PM 68.0 °F 57.2 °F 68% 30.06 in 10.0 mi WNW 12.7 mph 18.4 mph N/A   Mostly Cloudy
1:30 PM 68.0 °F 57.2 °F 68% 30.05 in 10.0 mi West 12.7 mph 18.4 mph N/A   Scattered Clouds
1:50 PM 68.0 °F 57.2 °F 68% 30.06 in 10.0 mi West 13.8 mph 20.7 mph N/A   Scattered Clouds
2:10 PM 68.0 °F 57.2 °F 68% 30.05 in 10.0 mi West 16.1 mph - N/A   Scattered Clouds
2:30 PM 68.0 °F 57.2 °F 68% 30.05 in 10.0 mi WNW 16.1 mph - N/A   Scattered Clouds
2:50 PM 68.0 °F 57.2 °F 68% 30.05 in 10.0 mi West 12.7 mph 18.4 mph N/A   Partly Cloudy
3:10 PM 68.0 °F 57.2 °F 68% 30.05 in 10.0 mi WNW 13.8 mph 17.3 mph N/A   Partly Cloudy
3:30 PM 66.2 °F 57.2 °F 73% 30.05 in 10.0 mi West 13.8 mph - N/A   Clear
3:50 PM 66.2 °F 57.2 °F 73% 30.04 in 10.0 mi West 16.1 mph - N/A   Clear
4:10 PM 66.2 °F 57.2 °F 73% 30.04 in 10.0 mi West 16.1 mph 20.7 mph N/A   Clear
4:30 PM 64.4 °F 57.2 °F 77% 30.03 in 10.0 mi West 16.1 mph 24.2 mph N/A   Partly Cloudy
4:50 PM 64.4 °F 57.2 °F 77% 30.03 in 10.0 mi West 15.0 mph 23.0 mph N/A   Scattered Clouds
5:10 PM 64.4 °F 57.2 °F 77% 30.03 in 10.0 mi WNW 13.8 mph 19.6 mph N/A   Mostly Cloudy
5:30 PM 62.6 °F 57.2 °F 82% 30.03 in 10.0 mi West 12.7 mph 18.4 mph N/A   Mostly Cloudy
5:50 PM 62.6 °F 57.2 °F 82% 30.03 in 10.0 mi West 15.0 mph 18.4 mph N/A   Overcast
6:10 PM 62.6 °F 57.2 °F 82% 30.03 in 10.0 mi West 13.8 mph - N/A   Overcast
6:30 PM 60.8 °F 57.2 °F 88% 30.02 in 10.0 mi West 13.8 mph - N/A   Overcast
6:50 PM 60.8 °F 57.2 °F 88% 30.02 in 10.0 mi West 11.5 mph 18.4 mph N/A   Overcast
7:10 PM 59.0 °F 57.2 °F 94% 30.02 in 10.0 mi West 11.5 mph - N/A   Overcast
7:30 PM 59.0 °F 55.4 °F 88% 30.02 in 10.0 mi WNW 11.5 mph - N/A   Overcast
7:50 PM 59.0 °F 55.4 °F 88% 30.02 in 10.0 mi WNW 11.5 mph - N/A   Overcast
8:10 PM 59.0 °F 55.4 °F 88% 30.03 in 10.0 mi WNW 10.4 mph - N/A   Overcast
8:30 PM 59.0 °F 55.4 °F 88% 30.03 in 10.0 mi WNW 9.2 mph - N/A   Overcast
8:50 PM 59.0 °F 55.4 °F 88% 30.03 in 10.0 mi WNW 9.2 mph - N/A   Overcast
9:10 PM 59.0 °F 57.2 °F 94% 30.03 in 10.0 mi NW 6.9 mph - N/A   Overcast
9:30 PM 59.0 °F 55.4 °F 88% 30.03 in 10.0 mi NNW 6.9 mph - N/A   Overcast
9:50 PM 59.0 °F 55.4 °F 88% 30.03 in 10.0 mi NNW 8.1 mph - N/A   Overcast
10:10 PM 59.0 °F 55.4 °F 88% 30.03 in 10.0 mi WNW 6.9 mph - N/A   Overcast
10:30 PM 59.0 °F 55.4 °F 88% 30.03 in 10.0 mi NW 6.9 mph - N/A   Overcast
10:50 PM 59.0 °F 55.4 °F 88% 30.03 in 10.0 mi NW 6.9 mph - N/A   Overcast
11:10 PM 59.0 °F 55.4 °F 88% 30.03 in 10.0 mi NNW 9.2 mph - N/A   Overcast
11:30 PM 57.2 °F 55.4 °F 94% 30.03 in 10.0 mi NW 6.9 mph - N/A   Overcast
11:50 PM 57.2 °F 55.4 °F 94% 30.02 in 10.0 mi NNW 4.6 mph - N/A   Overcast